Погода Назимово

Погода Назимово : погода сейчас, прогноз погоды и архив. Всё, что Вы хотите узнать о погоде Назимово!

Поиск расширенной информации на нашем сайте:

Другие новости

Новости СМИ2

Главная страница сайта

Новости сайта

02.10.2013

Напоминаем, что на нашем новом сайте вы можете получить высокодетализированные прогнозы погоды по пунктам России, СНГ и мира (включающие важные для авиации метеовеличины, такие как направление и скорость ветра, видимость, явления погоды, количество и форма облачности, нижняя и верхняя граница облачности), а также ознакомиться с разнообразными материалами по авиационной метеорологии и подборкой полезных ссылок на эту тему.

Сайт Метеоцентр.Азия посвящён разработке технологий оптимизации авиаметеорологического обслуживания, включая проектирование и перспективное создание нескольких автоматизированных авиаметеорологических систем:
- система выпуска высокодетальных прогностических карт явлений погоды для нижнего воздушного пространства по России и ближнему зарубежью;
- система верификации прогнозов TAF (выпускаемых синоптиками официальных АМСГ РФ и ближнего зарубежья) и AUTOTAF (выпускаемых сайтом Метеоцентр.Азия) - выявление ошибок, онлайн-сопоставление с фактической погодой METAR, автоматическое внесение коррективов в прогнозы при резком отклонении фактической погоды от прогноза, подсчёт оправдываемости прогнозов по элементам и в целом;
- система обработки, анализа и отображения авиаметеорологической информации для применения провайдерами метеорологической информации.


Погода Назимово - сегодня

Время (UTC), дата Ветер
(°,м/с) 
Видим.   Явления Облачность Т
(°С)
Тd
(°С)
f(%) Тe
(°С)
Pmin
(гПа)
dP
(гПа)
Po
(мм)
O2
(г/м3)
Тmin Tmax R s Состояние
почвы
18 16.01.17 тихо ()   н/о    ясно 
-39.4 -42.3 74 -39  1046.2  0.2  777  368           
21 16.01.17 тихо ()   н/о    ясно 
-42 -45 73 -42  1046.6  0.3  777  372           
00 17.01.17 тихо ()   н/о    ясно 
-42.7 -45.6 73 -43  1047  0.4  778  374  -42.7      80  равномерный
сухой снег
100% 
03 17.01.17 140 (ЮВ) 20000 м    3/0 верхняя 
[Ci fib]
-43.2 -45.6 77 -45  1047.2  0.2  778  374  -43.7         
06 17.01.17 140 (ЮВ) 20000 м    10/0 верхняя 
[Cs]
-38.8 -41.8 73 -40  1046.5  -0.6  777  367           
09 17.01.17 140 (ЮВ) 20000 м    9/3 2000 м средняя, верхняя 
[Ac lent|Ci fib]
-33.7 -36.6 75 -35  1044.4  -1.7  776  359           
12 17.01.17 140 (ЮВ) н/о  слаб. снег  9/3 2000 м средняя, верхняя 
[Ac lent|Cs]
-30.4 -33.4 75 -31  1044.4  0.1  776  354    -30.3  0.0     
15 17.01.17 150 (ЮВ) н/о  слаб. снег  10/0 верхняя 
[Cs]
-28.8 -31.9 75 -36  1042.3  -2.1  774  351           
18 17.01.17 150 (ЮВ) 5{10}  н/о  слаб. снег  10/0 верхняя 
[Cs]
-28.1 -31.2 75 -36  1039.8  -2.4  773  349           
21 17.01.17 180 (Ю) н/о  слаб. снег  10/0 верхняя 
[Cs]
-27 -30.1 75 -34  1037.6  -1.5  771  347           
00 18.01.17 150 (ЮВ) 2{10}  н/о  ливневой снег  10/10 600 м кучево-дожд. 
[Cb cap]
-25.5 -28 80 -29  1032.8  -5.1  768  343  -30.4    0.7  82  равномерный
сухой снег
100% 
03 18.01.17 150 (ЮВ) 3{10}  1000 м  ливневой снег  10/10 600 м кучево-дожд. 
[Cb cap]
-23.9 -26.4 80 -29  1031.2  -1.6  766  340           
06 18.01.17 150 (ЮВ) 1000 м  ливневой снег  10/10 600 м кучево-дожд. 
[Cb cap]
-21.9 -24.5 79 -26  1030.3  -0.8  766  337           
09 18.01.17 140 (ЮВ) 10 км  слаб. ливневой снег  10/10 600 м кучево-дожд. 
[Cb cap]
-20.6 -23.1 80 -23  1029.5  -0.7  765  335           
12 18.01.17 150 (ЮВ) н/о  {ливн. осадки}  10/10 2000 м 
[As trans]
-23.2 -25.7 80 -24  1030.1  0.5  766  339    -19.7     
15 18.01.17 130 (ЮВ) н/о  слаб. снег  9/9 2000 м средняя 
[As trans]
-21.1 -23.6 80 -24  1029.2  -0.8  765  336           
18 18.01.17 130 (ЮВ) н/о  слаб. снег  8/8 2000 м средняя 
[As trans]
-22.8 +25.3 100 +9  1029.1  -0.2  765  328           
21 18.01.17 130 (ЮВ) н/о  слаб. снег  9/8 2000 м средняя, верхняя 
[As trans|Ci fib]
-23.7 -26.3 79 -27  1029.2  0.1  765  339           
00 19.01.17 140 (ЮВ) н/о  слаб. снег  8/8 2000 м средняя 
[Ac As]
-24.6 -27.2 79 -25  1029.6  0.3  765  341  -24.6    0.5  82  равномерный
сухой снег
100% 
03 19.01.17 150 (ЮВ) 10 км  слаб. снег  10/10 2000 м 
[Ac As]
-24.4 -26.9 80 -25  1030.9  1.3  766  341           
06 19.01.17 190 (Ю) 20000 м  {снег}  10/10 2000 м 
[Ac As]
-23.2 -25.7 80 -24  1032.2  1.4  767  340           
09 19.01.17 140 (ЮВ) 20000 м    10/10 2000 м 
[Ac As]
-23 -25.6 79 -23  1033.5  1.3  768  340           
12 19.01.17 120 (ЮВ) н/о    ясно 
-26.4 -29.6 74 -27  1035.1  1.3  769  345    -22.8  0.0     
15 19.01.17 130 (ЮВ) н/о  слаб. снег  10/10 2000 м 
[As trans]
-27.4 -29.8 80 -28  1036.4  1.3  770  347           
18 19.01.17 120 (ЮВ) н/о  слаб. снег  10/10 2000 м 
[As trans]
-23.3 -25.8 80 -24  1036.5  0.3  770  341           
Время (UTC), дата Ветер
(°,м/с) 
Видим.   Явления Облачность Т
(°С)
Тd
(°С)
f(%) Тe
(°С)
Pmin
(гПа)
dP
(гПа)
Po
(мм)
O2
(г/м3)
Тmin Tmax R s Состояние
почвы

Для получения пояснительной информации подведите курсор к названию столбца.

ПОГОДА Назимово - архив

Всё, что Вы хотите узнать о погоде Назимово - удобно и подробно!

Выберите нужную дату (начиная с 1 января 2015* года) и нажмите кнопку "Найти".
Будут отображены архивные сводки погоды по пункту Назимово, начиная с указанной даты.


Отображать данные в формате CSV (для использования в таблицах Excel)


Внимание! Наш архив погоды предназначен исключительно для личного некоммерческого использования в познавательных целях. Если Вам необходимы официальные справки о состоянии погоды (для производственных, юридических, коммерческих и т.п. целей), обращайтесь в органы Росгидромета.

*Примечание: данная дата относится к архиву по метеостанциям СССР (Россия, СНГ, Балтия).
Архив по метеостанциям Зарубежной Европы и Азии (кроме Китая) хранится 10 дней, по другим регионам земного шара (Китай, Африка, Америка, Австралия, Океания) - 1 день.

Назимово - район местоположения метеостанции


Название, широта, долгота, высота метеостанции:
Назимово 59.5°ш. 91°д. 67 м над ур. моря [Российская Федерация]

Дополнительная информация

В oтличие oт бoльшинства пoгoдных сайтoв мы публикуем пoдрoбную метеoинфoрмацию в детальнoм прoфессиoнальнoм фoрмате.

Характеристики температуры и влажнoсти вoздуха измеряются на высoте 2 м в тени вдали oт зданий и деревьев.
Скoрoсть ветра измеряется на высoте 10 м (на урoвне рoста челoвека скoрoсть ветра ниже в 1.5-2 раза). Если метеoстанция нахoдится в гoрoде или в лесу, тo скoрoсть ветра занижена на 2-4 м/с пo сравнению с oткрытым местoм. Скoрoсть ветра над акватoриями крупных рек и oзёр, а также на вершинах хoлмoв на 2-5 м/с выше, чем в oбычных услoвиях.
Атмoсфернoе давление в разных тoчках местнoсти мoжет значительнo oтличаться oт давления на метеoстанции, в зависимoсти oт услoвий рельефа (при пoдъёме на 10 м давление пoнижается примернo на 1 мм рт.ст.).